Location: Meanaryar
(48.4161°N, 4.7315°W)
Time: 10:03:50
(UTC+00:00)

Cosmos 1092 Rocket - Visible Passes

Search period start: 17 January 2021 00:00
Search period end: 27 January 2021 00:00
Orbit: 953 x 996 km, 82.9° (Epoch: 16 January)

Date Brightness Start Highest point End Pass type
(mag) Time Alt. Az. Time Alt. Az. Time Alt. Az.
17 Jan 5.7 05:36:21 10° N 05:41:42 30° ENE 05:47:02 10° SE visible
17 Jan 4.2 07:21:25 10° NNW 07:27:21 51° W 07:33:15 10° SSW visible
17 Jan 4.0 19:09:45 10° SSE 19:15:43 50° E 19:17:18 41° NE visible
17 Jan 5.5 20:55:56 10° SW 21:01:21 31° WNW 21:02:08 30° NW visible
18 Jan 4.9 06:01:10 10° N 06:07:08 50° ENE 06:13:04 10° SSE visible
18 Jan 5.4 17:53:05 10° ESE 17:56:22 15° ENE 17:59:38 10° NE visible
18 Jan 3.8 19:34:32 10° S 19:40:45 85° E 19:46:57 10° N visible
18 Jan 6.2 21:22:41 10° WSW 21:26:57 19° WNW 21:31:13 10° NNW visible
19 Jan 6.5 04:42:18 10° NNE 04:45:59 16° ENE 04:49:39 10° E visible
19 Jan 4.0 06:26:11 10° N 06:32:23 83° E 06:38:33 10° S visible
19 Jan 4.8 18:16:05 10° SE 18:21:01 26° E 18:25:57 10° NNE visible
19 Jan 4.4 19:59:51 10° SSW 20:05:57 59° WNW 20:12:03 10° N visible
19 Jan 6.7 21:50:56 10° WNW 21:52:47 11° NW 21:54:37 10° NW visible
20 Jan 5.9 05:06:35 10° N 05:11:40 26° ENE 05:16:44 10° ESE visible
20 Jan 4.0 06:51:26 10° NNW 06:57:28 60° W 07:03:29 10° S visible
20 Jan 4.2 18:40:04 10° SSE 18:45:51 43° E 18:51:38 10° NNE visible
20 Jan 5.3 20:25:42 10° SW 20:31:19 35° WNW 20:36:56 10° N visible
21 Jan 5.1 05:31:19 10° N 05:37:09 43° ENE 05:42:58 10° SE visible
21 Jan 4.6 07:16:55 10° NNW 07:22:23 35° W 07:27:52 10° SSW visible
21 Jan 3.8 19:04:41 10° S 19:10:50 73° E 19:17:00 10° NNE visible
21 Jan 6.1 20:52:13 10° WSW 20:56:52 22° WNW 21:01:31 10° NNW visible
22 Jan 6.7 04:12:48 10° NNE 04:15:52 14° ENE 04:18:55 10° E visible
22 Jan 4.2 05:56:16 10° N 06:02:26 72° E 06:08:36 10° SSE visible
22 Jan 5.0 17:46:40 10° SE 17:51:14 22° E 17:55:46 10° NE visible
22 Jan 4.2 19:29:50 10° SSW 19:36:00 68° WNW 19:42:09 10° N visible
22 Jan 6.7 21:19:49 10° W 21:22:38 13° WNW 21:25:27 10° NNW visible
23 Jan 6.1 04:36:50 10° NNE 04:41:37 23° ENE 04:46:22 10° ESE visible
23 Jan 3.9 06:21:28 10° NNW 06:27:35 69° W 06:33:42 10° S visible
23 Jan 4.4 18:10:26 10° SSE 18:16:00 37° E 18:21:34 10° NNE visible
23 Jan 5.1 19:55:32 10° SW 20:01:19 41° WNW 20:07:06 10° N visible
24 Jan 5.3 05:01:28 10° N 05:07:08 37° ENE 05:12:48 10° SE visible
24 Jan 4.3 06:46:52 10° NNW 06:52:33 41° W 06:58:15 10° SSW visible
24 Jan 3.9 18:34:52 10° S 18:40:57 63° E 18:47:01 10° NNE visible
24 Jan 6.0 20:21:50 10° WSW 20:26:48 25° WNW 20:31:48 10° NNW visible
25 Jan 6.8 03:43:30 10° NNE 03:45:44 12° NE 03:47:57 10° ENE visible
25 Jan 4.4 05:26:23 10° N 05:32:29 62° ENE 05:38:36 10° SSE visible
25 Jan 4.9 07:12:35 10° NNW 07:17:22 24° W 07:22:09 10° SW visible
25 Jan 4.1 18:59:52 10° SSW 19:06:04 79° W 19:12:14 10° N visible
25 Jan 6.6 20:49:02 10° W 20:52:31 15° WNW 20:56:00 10° NNW visible
26 Jan 6.3 04:07:08 10° NNE 04:11:32 20° ENE 04:15:55 10° ESE visible
26 Jan 3.9 05:51:30 10° N 05:57:40 80° W 06:03:51 10° S visible
26 Jan 4.7 17:40:50 10° SE 17:46:10 32° E 17:51:30 10° NNE visible
26 Jan 4.9 19:25:24 10° SSW 19:31:19 47° WNW 19:37:15 10° N visible
